FW4287 Weather Reports


Display with metric or nautical units.
time (UTC)temp
F
wind
direction
speed
MPH
gust
MPH
rain 1hr
in
rain 24hr
in
rain mn
in
humidity
%
barometer
mb
20260904190031 56 159 2.0 4.0 0.00 0.00 0.00 83 1015.4
20260904184533 55 194 2.0 6.0 0.00 0.00 0.00 85 1015.4
20260904183031 55 201 1.0 5.0 0.00 0.00 0.00 86 1015.3
20260904181532 54 283 0.0 2.0 0.00 0.00 0.00 88 1015.2
20260904180027 53 212 0.0 3.0 0.00 0.00 0.00 90 1015.2
20260904174530 52 180 0.0 2.0 0.00 0.00 0.00 92 1015.1
20260904173031 52 193 3.0 5.0 0.00 0.00 0.00 92 1015.2
20260904164529 52 222 2.0 5.0 0.00 0.00 0.00 94 1015.0
20260904163032 52 34 1.0 3.0 0.00 0.00 0.00 96 1015.0
20260904154529 50 67 2.0 3.0 0.00 0.00 0.00 99 1014.8
20260904151528 49 42 0.0 2.0 0.00 0.00 0.00 99 1014.5
20260904150029 49 202 0.0 0.0 0.00 0.01 0.00 99 1014.4
20260904143033 48 202 0.0 0.0 0.00 0.01 0.00 99 1014.1
20260904140104 48 202 0.0 0.0 0.00 0.01 0.00 99 1013.8
20260904134531 48 202 0.0 0.0 0.00 0.01 0.00 98 1013.7
20260904131532 48 202 0.0 0.0 0.00 0.01 0.00 98 1013.4
20260904130147 48 202 0.0 0.0 0.00 0.01 0.00 98 1013.2
20260904124606 48 202 0.0 0.0 0.00 0.01 0.00 98 1013.2
20260904114530 47 67 0.0 0.0 0.00 0.01 0.00 98 1012.9
20260904113107 47 67 0.0 0.0 0.00 0.01 0.00 98 1012.8
20260904111530 47 67 0.0 0.0 0.00 0.01 0.00 98 1012.7
20260904110028 47 67 0.0 0.0 0.00 0.01 0.00 98 1012.6
20260904104607 47 67 0.0 0.0 0.00 0.01 0.00 98 1012.5
20260904103030 47 67 0.0 0.0 0.00 0.01 0.00 98 1012.4
20260904101531 47 67 0.0 0.0 0.00 0.01 0.00 98 1012.2
20260904100030 46 67 0.0 0.0 0.00 0.01 0.00 98 1012.1
20260904094606 46 67 0.0 0.0 0.00 0.01 0.00 98 1012.1
20260904093028 46 67 0.0 0.0 0.00 0.01 0.00 97 1012.0
20260904091526 46 67 0.0 0.0 0.00 0.01 0.00 97 1012.1
20260904090104 46 67 0.0 0.0 0.00 0.01 0.00 97 1012.0
20260904083031 46 67 0.0 0.0 0.00 0.01 0.00 97 1011.9
20260904074531 47 36 0.0 0.0 0.00 0.01 0.00 97 1011.9
20260904073105 46 67 0.0 0.0 0.00 0.01 0.00 96 1011.9
20260904071530 47 67 0.0 0.0 0.00 0.01 0.00 96 1011.9
20260904064529 46 67 0.0 0.0 0.00 0.01 0.01 96 1011.8
20260904063026 47 67 0.0 0.0 0.00 0.01 0.01 95 1011.8
20260904061530 48 67 0.0 0.0 0.00 0.01 0.01 95 1011.8
20260904060030 48 67 0.0 0.0 0.00 0.01 0.01 95 1011.8
20260904053031 49 67 0.0 0.0 0.00 0.01 0.01 94 1011.8
20260904051532 49 67 0.0 0.0 0.00 0.01 0.01 94 1011.8
20260904050029 49 67 0.0 0.0 0.00 0.01 0.01 94 1011.8
20260904034529 51 67 0.0 0.0 0.00 0.01 0.01 90 1011.9
20260904033028 51 67 0.0 2.0 0.00 0.02 0.01 88 1011.8
20260904031646 52 67 1.0 3.0 0.00 0.02 0.01 87 1011.7
20260904030030 52 46 2.0 4.0 0.00 0.02 0.01 85 1011.6
20260904023106 54 29 3.0 7.0 0.00 0.07 0.01 82 1011.5
20260904021529 54 23 4.0 7.0 0.00 0.10 0.01 82 1011.4
20260904020031 55 11 5.0 9.0 0.00 0.13 0.01 82 1011.2
20260904014606 55 35 4.0 7.0 0.00 0.14 0.01 83 1011.3
20260904013031 55 30 2.0 5.0 0.00 0.14 0.01 82 1011.3
20260904011529 55 24 3.0 6.0 0.00 0.14 0.01 82 1011.3
20260904010105 56 22 3.0 7.0 0.00 0.15 0.01 81 1011.3
20260904004607 56 357 4.0 9.0 0.00 0.15 0.01 80 1011.2
20260904003031 55 9 6.0 10.0 0.00 0.16 0.01 82 1011.2
20260904001529 56 2 8.0 13.0 0.00 0.16 0.01 81 1011.2
20260903234606 55 39 6.0 12.0 0.00 0.16 0.01 83 1011.3
20260903231648 56 3 8.0 13.0 0.00 0.16 0.01 76 1011.4
20260903224530 59 328 6.0 11.0 0.00 0.16 0.01 70 1011.4
20260903223029 60 305 5.0 9.0 0.00 0.16 0.01 67 1011.3
20260903221530 61 315 5.0 10.0 0.00 0.16 0.01 65 1011.2
20260903220030 61 344 5.0 10.0 0.00 0.16 0.01 64 1011.1
20260903214530 61 44 3.0 9.0 0.00 0.16 0.01 67 1011.1
20260903213033 61 24 3.0 7.0 0.00 0.16 0.01 67 1011.2
20260903211532 61 3 5.0 9.0 0.00 0.16 0.01 67 1011.2
20260903210031 61 330 5.0 13.0 0.00 0.16 0.01 68 1011.3
20260903204531 60 360 6.0 11.0 0.00 0.16 0.01 72 1011.4
20260903201530 59 320 3.0 8.0 0.00 0.16 0.01 76 1011.5
20260903200029 60 323 6.0 11.0 0.00 0.16 0.01 75 1011.5
20260903194531 60 346 5.0 11.0 0.00 0.16 0.01 77 1011.8
20260903193031 58 2 5.0 10.0 0.00 0.16 0.01 82 1012.0
20260903191531 57 352 4.0 7.0 0.00 0.16 0.01 86 1012.2